Location: Piotrkow Trybunalski
(51.4000°N, 19.6830°E)
Time: 15:28:23
(UTC+01:00)

Vanguard 2 - Pass Details

Date: 14 February 2023
Orbit: 553 x 2927 km, 32.9° (Epoch: 24 March)

Event Time Altitude Azimuth Distance (km) Brightness Sun altitude
Rises 20:40:11 0° 245° (WSW) 4,432 11.9 -35.1°
Reaches altitude 10° 20:43:11 10° 235° (SW) 3,766 11.3 -35.5°
Enters shadow 20:50:22 30° 190° (S) 3,110 10.3 -36.5°
Maximum altitude 20:51:51 31° 178° (S) 3,185 - -36.7°
Drops below altitude 10° 21:04:09 10° 125° (SE) 5,394 - -38.4°
Sets 21:09:32 0° 117° (ESE) 6,628 - -39.1°
